Time,TemperatureF,DewpointF,PressureIn,WindDirection,WindDirectionDegrees,WindSpeedMPH,WindSpeedGustMPH,Humidity,HourlyPrecipIn,Conditions,Clouds,dailyrainin,SoftwareType,DateUTC
2013-06-14 00:00:00,66.2,57.3,29.96,East,88,0.0,2.0,73,0.00,,,0.00,VWS V14.01,2013-06-14 05:00:00,
2013-06-14 00:01:00,64.4,57.0,29.98,ESE,116,0.0,0.0,77,0.00,,CLR,0.00,VWS V14.01,2013-06-14 05:01:00,
2013-06-14 00:06:00,64.3,57.3,29.98,ESE,115,0.0,0.0,78,0.00,,CLR,0.00,VWS V14.01,2013-06-14 05:06:00,
2013-06-14 00:11:00,64.1,57.1,29.98,ESE,115,0.0,1.0,78,0.00,,CLR,0.00,VWS V14.01,2013-06-14 05:11:00,
2013-06-14 00:16:00,64.2,57.2,29.98,ESE,116,0.0,1.0,78,0.00,,CLR,0.00,VWS V14.01,2013-06-14 05:16:00,
2013-06-14 00:21:00,64.0,57.0,29.98,ESE,115,0.0,1.0,78,0.00,,CLR,0.00,VWS V14.01,2013-06-14 05:21:00,
2013-06-14 00:26:00,63.9,56.9,29.98,ESE,116,0.0,1.0,78,0.00,,CLR,0.00,VWS V14.01,2013-06-14 05:26:00,
2013-06-14 00:30:00,65.6,57.1,29.97,ESE,117,0.0,4.0,74,0.00,,,0.00,VWS V14.01,2013-06-14 05:30:00,
2013-06-14 00:31:00,64.1,56.8,29.98,East,91,0.0,0.0,77,0.00,,CLR,0.00,VWS V14.01,2013-06-14 05:31:00,
2013-06-14 00:36:00,64.1,56.8,29.97,East,91,0.0,0.0,77,0.00,,CLR,0.00,VWS V14.01,2013-06-14 05:36:00,
2013-06-14 00:41:00,64.0,57.0,29.98,East,91,0.0,1.0,78,0.00,,CLR,0.00,VWS V14.01,2013-06-14 05:41:00,
2013-06-14 00:46:00,63.7,57.1,29.99,East,91,0.0,1.0,79,0.00,,CLR,0.00,VWS V14.01,2013-06-14 05:46:00,
2013-06-14 00:51:00,63.5,56.9,29.99,East,91,0.0,1.0,79,0.00,,CLR,0.00,VWS V14.01,2013-06-14 05:51:00,
2013-06-14 00:56:00,63.3,56.7,29.99,East,91,0.0,1.0,79,0.00,,CLR,0.00,VWS V14.01,2013-06-14 05:56:00,
2013-06-14 01:00:00,64.4,57.0,29.98,ESE,116,0.0,1.0,77,0.00,,,0.00,VWS V14.01,2013-06-14 06:00:00,
2013-06-14 01:01:00,63.0,56.4,30.00,East,91,0.0,0.0,79,0.00,,CLR,0.00,VWS V14.01,2013-06-14 06:01:00,
2013-06-14 01:06:00,63.0,56.7,30.00,East,90,0.0,0.0,80,0.00,,CLR,0.00,VWS V14.01,2013-06-14 06:06:00,
2013-06-14 01:11:00,63.0,56.7,30.00,East,93,0.0,1.0,80,0.00,,CLR,0.00,VWS V14.01,2013-06-14 06:11:00,
2013-06-14 01:16:00,63.2,56.6,30.00,East,92,0.0,1.0,79,0.00,,CLR,0.00,VWS V14.01,2013-06-14 06:16:00,
2013-06-14 01:21:00,63.2,56.9,30.00,East,91,0.0,1.0,80,0.00,,CLR,0.00,VWS V14.01,2013-06-14 06:21:00,
2013-06-14 01:26:00,62.9,56.6,30.01,East,92,0.0,1.0,80,0.00,,CLR,0.00,VWS V14.01,2013-06-14 06:26:00,
2013-06-14 01:30:00,64.1,56.8,29.98,East,91,0.0,1.0,77,0.00,,,0.00,VWS V14.01,2013-06-14 06:30:00,
2013-06-14 01:31:00,62.6,56.3,30.01,East,91,0.0,0.0,80,0.00,,CLR,0.00,VWS V14.01,2013-06-14 06:31:00,
2013-06-14 01:36:00,62.5,56.6,30.01,East,91,0.0,0.0,81,0.00,,CLR,0.00,VWS V14.01,2013-06-14 06:36:00,
2013-06-14 01:41:00,62.4,56.8,30.01,SSW,211,0.0,2.0,82,0.00,,CLR,0.00,VWS V14.01,2013-06-14 06:41:00,
2013-06-14 01:46:00,62.3,57.1,30.01,SW,219,0.0,2.0,83,0.00,,CLR,0.00,VWS V14.01,2013-06-14 06:46:00,
2013-06-14 01:51:00,62.2,57.0,30.01,WSW,239,0.0,2.0,83,0.00,,CLR,0.00,VWS V14.01,2013-06-14 06:51:00,
2013-06-14 01:56:00,62.3,57.1,30.01,SW,228,1.0,2.0,83,0.00,,CLR,0.00,VWS V14.01,2013-06-14 06:56:00,
2013-06-14 02:00:00,63.1,56.5,30.00,East,90,0.0,1.0,79,0.00,,,0.00,VWS V14.01,2013-06-14 07:00:00,
2013-06-14 02:01:00,62.4,57.2,30.01,SW,224,1.0,1.0,83,0.00,,CLR,0.00,VWS V14.01,2013-06-14 07:01:00,
2013-06-14 02:06:00,62.3,57.1,30.01,SSW,211,0.0,2.0,83,0.00,,CLR,0.00,VWS V14.01,2013-06-14 07:06:00,
2013-06-14 02:11:00,62.2,57.0,30.00,SSW,208,0.0,2.0,83,0.00,,CLR,0.00,VWS V14.01,2013-06-14 07:11:00,
2013-06-14 02:16:00,62.1,57.2,30.00,ESE,121,1.0,2.0,84,0.00,,CLR,0.00,VWS V14.01,2013-06-14 07:16:00,
2013-06-14 02:21:00,62.5,56.9,29.99,ESE,107,3.0,3.0,82,0.00,,CLR,0.00,VWS V14.01,2013-06-14 07:21:00,
2013-06-14 02:26:00,62.9,57.0,29.99,ESE,105,2.0,3.0,81,0.00,,CLR,0.00,VWS V14.01,2013-06-14 07:26:00,
2013-06-14 02:30:00,62.6,56.3,30.01,East,91,0.0,1.0,80,0.00,,,0.00,VWS V14.01,2013-06-14 07:30:00,
2013-06-14 02:31:00,63.1,56.8,29.99,East,93,0.0,2.0,80,0.00,,CLR,0.00,VWS V14.01,2013-06-14 07:31:00,
2013-06-14 02:36:00,63.1,56.8,29.99,East,91,0.0,2.0,80,0.00,,CLR,0.00,VWS V14.01,2013-06-14 07:36:00,
2013-06-14 02:41:00,62.9,57.0,29.98,ESE,121,1.0,2.0,81,0.00,,CLR,0.00,VWS V14.01,2013-06-14 07:41:00,
2013-06-14 02:46:00,63.0,56.7,29.98,East,91,1.0,4.0,80,0.00,,CLR,0.00,VWS V14.01,2013-06-14 07:46:00,
2013-06-14 02:51:00,63.2,56.9,29.98,ESE,109,1.0,4.0,80,0.00,,CLR,0.00,VWS V14.01,2013-06-14 07:51:00,
2013-06-14 02:56:00,63.2,56.9,29.98,East,94,0.0,5.0,80,0.00,,CLR,0.00,VWS V14.01,2013-06-14 07:56:00,
2013-06-14 03:00:00,62.4,56.8,30.01,SW,217,1.0,2.0,82,0.00,,,0.00,VWS V14.01,2013-06-14 08:00:00,
2013-06-14 03:01:00,63.1,56.8,29.98,East,86,0.0,0.0,80,0.00,,CLR,0.00,VWS V14.01,2013-06-14 08:01:00,
2013-06-14 03:06:00,63.0,57.1,29.98,ESE,105,0.0,2.0,81,0.00,,CLR,0.00,VWS V14.01,2013-06-14 08:06:00,
2013-06-14 03:11:00,62.8,56.9,29.98,ESE,105,0.0,2.0,81,0.00,,CLR,0.00,VWS V14.01,2013-06-14 08:11:00,
2013-06-14 03:16:00,62.8,56.9,29.99,East,97,1.0,4.0,81,0.00,,CLR,0.00,VWS V14.01,2013-06-14 08:16:00,
2013-06-14 03:21:00,62.8,57.2,30.00,ESE,111,1.0,4.0,82,0.00,,CLR,0.00,VWS V14.01,2013-06-14 08:21:00,
2013-06-14 03:26:00,62.6,57.0,30.00,East,91,1.0,4.0,82,0.00,,CLR,0.00,VWS V14.01,2013-06-14 08:26:00,
2013-06-14 03:30:00,63.1,56.8,29.99,ESE,104,2.0,3.0,80,0.00,,,0.00,VWS V14.01,2013-06-14 08:30:00,
2013-06-14 03:31:00,62.6,57.0,30.00,ESE,109,0.0,1.0,82,0.00,,CLR,0.00,VWS V14.01,2013-06-14 08:31:00,
2013-06-14 03:36:00,62.3,57.1,29.99,East,101,2.0,3.0,83,0.00,,CLR,0.00,VWS V14.01,2013-06-14 08:36:00,
2013-06-14 03:41:00,62.4,56.8,29.99,ESE,112,3.0,4.0,82,0.00,,CLR,0.00,VWS V14.01,2013-06-14 08:41:00,
2013-06-14 03:46:00,62.4,56.8,29.99,ESE,103,2.0,4.0,82,0.00,,CLR,0.00,VWS V14.01,2013-06-14 08:46:00,
2013-06-14 03:51:00,62.5,56.6,29.99,East,101,2.0,4.0,81,0.00,,CLR,0.00,VWS V14.01,2013-06-14 08:51:00,
2013-06-14 03:56:00,62.8,56.9,30.00,ESE,116,2.0,4.0,81,0.00,,CLR,0.00,VWS V14.01,2013-06-14 08:56:00,
2013-06-14 04:00:00,63.1,56.8,29.98,East,86,0.0,5.0,80,0.00,,,0.00,VWS V14.01,2013-06-14 09:00:00,
2013-06-14 04:01:00,62.9,57.0,30.00,ESE,113,1.0,2.0,81,0.00,,CLR,0.00,VWS V14.01,2013-06-14 09:01:00,
2013-06-14 04:06:00,62.8,56.9,30.00,East,101,2.0,2.0,81,0.00,,CLR,0.00,VWS V14.01,2013-06-14 09:06:00,
2013-06-14 04:11:00,62.8,56.9,30.00,ESE,103,1.0,3.0,81,0.00,,CLR,0.00,VWS V14.01,2013-06-14 09:11:00,
2013-06-14 04:16:00,62.9,56.6,30.00,East,101,1.0,3.0,80,0.00,,CLR,0.00,VWS V14.01,2013-06-14 09:16:00,
2013-06-14 04:21:00,63.0,57.1,30.01,ESE,106,0.0,3.0,81,0.00,,CLR,0.00,VWS V14.01,2013-06-14 09:21:00,
2013-06-14 04:26:00,62.9,57.0,30.01,ESE,110,0.0,3.0,81,0.00,,CLR,0.00,VWS V14.01,2013-06-14 09:26:00,
2013-06-14 04:30:00,62.6,57.0,30.00,ESE,106,1.0,4.0,82,0.00,,,0.00,VWS V14.01,2013-06-14 09:30:00,
2013-06-14 04:31:00,62.8,56.9,30.02,ESE,110,0.0,0.0,81,0.00,,CLR,0.00,VWS V14.01,2013-06-14 09:31:00,
2013-06-14 04:36:00,62.6,57.0,30.02,ESE,110,0.0,0.0,82,0.00,,CLR,0.00,VWS V14.01,2013-06-14 09:36:00,
2013-06-14 04:41:00,62.4,56.8,30.02,ESE,110,0.0,0.0,82,0.00,,CLR,0.00,VWS V14.01,2013-06-14 09:41:00,
2013-06-14 04:46:00,62.2,56.6,30.02,ESE,110,0.0,0.0,82,0.00,,CLR,0.00,VWS V14.01,2013-06-14 09:46:00,
2013-06-14 04:51:00,62.0,56.5,30.02,ESE,110,0.0,0.0,82,0.00,,CLR,0.00,VWS V14.01,2013-06-14 09:51:00,
2013-06-14 04:56:00,62.0,56.8,30.02,ESE,110,0.0,0.0,83,0.00,,CLR,0.00,VWS V14.01,2013-06-14 09:56:00,
2013-06-14 05:00:00,62.9,57.0,30.00,ESE,116,2.0,4.0,81,0.00,,,0.00,VWS V14.01,2013-06-14 10:00:00,
2013-06-14 05:01:00,62.0,57.1,30.01,East,82,0.0,0.0,84,0.00,,CLR,0.00,VWS V14.01,2013-06-14 10:01:00,
2013-06-14 05:06:00,62.0,57.1,30.01,ESE,119,0.0,2.0,84,0.00,,CLR,0.00,VWS V14.01,2013-06-14 10:06:00,
2013-06-14 05:11:00,62.2,57.0,30.01,ESE,110,1.0,2.0,83,0.00,,CLR,0.00,VWS V14.01,2013-06-14 10:11:00,
2013-06-14 05:16:00,62.4,57.2,30.01,ESE,110,1.0,2.0,83,0.00,,CLR,0.00,VWS V14.01,2013-06-14 10:16:00,
2013-06-14 05:21:00,62.4,57.2,30.01,ESE,105,3.0,3.0,83,0.00,,CLR,0.00,VWS V14.01,2013-06-14 10:21:00,
2013-06-14 05:26:00,62.6,57.4,30.01,SE,131,1.0,3.0,83,0.00,,CLR,0.00,VWS V14.01,2013-06-14 10:26:00,
2013-06-14 05:30:00,62.8,56.9,30.02,ESE,110,0.0,3.0,81,0.00,,,0.00,VWS V14.01,2013-06-14 10:30:00,
2013-06-14 05:31:00,62.8,57.6,30.01,ESE,116,2.0,2.0,83,0.00,,CLR,0.00,VWS V14.01,2013-06-14 10:31:00,
2013-06-14 05:36:00,62.8,57.6,30.01,ESE,120,2.0,2.0,83,0.00,,CLR,0.00,VWS V14.01,2013-06-14 10:36:00,
2013-06-14 05:41:00,62.8,57.6,30.00,ESE,120,3.0,4.0,83,0.00,,CLR,0.00,VWS V14.01,2013-06-14 10:41:00,
2013-06-14 05:46:00,62.7,57.1,29.99,East,97,6.0,8.0,82,0.00,,CLR,0.00,VWS V14.01,2013-06-14 10:46:00,
2013-06-14 05:51:00,62.9,57.3,29.98,ESE,113,5.0,9.0,82,0.00,,CLR,0.00,VWS V14.01,2013-06-14 10:51:00,
2013-06-14 05:56:00,62.8,57.6,29.98,East,92,1.0,10.0,83,0.00,,CLR,0.00,VWS V14.01,2013-06-14 10:56:00,
2013-06-14 06:00:00,62.0,57.1,30.01,East,81,0.0,1.0,84,0.00,,,0.00,VWS V14.01,2013-06-14 11:00:00,
2013-06-14 06:01:00,62.8,57.2,29.98,ESE,108,8.0,8.0,82,0.00,,FEW110,0.00,VWS V14.01,2013-06-14 11:01:00,
2013-06-14 06:06:00,63.0,57.1,29.98,ESE,108,6.0,9.0,81,0.00,,FEW110,0.00,VWS V14.01,2013-06-14 11:06:00,
2013-06-14 06:11:00,62.9,57.3,29.97,ESE,118,9.0,10.0,82,0.00,,FEW110,0.00,VWS V14.01,2013-06-14 11:11:00,
2013-06-14 06:16:00,62.7,57.5,29.96,ESE,102,10.0,12.0,83,0.00,,FEW110,0.00,VWS V14.01,2013-06-14 11:16:00,
2013-06-14 06:21:00,62.7,57.5,29.96,ESE,120,9.0,13.0,83,0.00,,FEW110,0.00,VWS V14.01,2013-06-14 11:21:00,
2013-06-14 06:26:00,63.1,57.2,29.95,ESE,110,9.0,16.0,81,0.00,,FEW110,0.00,VWS V14.01,2013-06-14 11:26:00,
2013-06-14 06:30:00,62.7,57.5,30.01,ESE,106,1.0,3.0,83,0.00,,,0.00,VWS V14.01,2013-06-14 11:30:00,
2013-06-14 06:31:00,63.2,57.3,29.94,ESE,107,11.0,11.0,81,0.00,,FEW110,0.00,VWS V14.01,2013-06-14 11:31:00,
2013-06-14 06:36:00,63.3,57.4,29.95,SE,142,9.0,15.0,81,0.00,,FEW110,0.00,VWS V14.01,2013-06-14 11:36:00,
2013-06-14 06:41:00,63.0,57.8,29.96,ESE,116,10.0,15.0,83,0.00,,FEW110,0.00,VWS V14.01,2013-06-14 11:41:00,
2013-06-14 06:46:00,62.8,57.6,29.96,ESE,113,8.0,15.0,83,0.00,,FEW110,0.00,VWS V14.01,2013-06-14 11:46:00,
2013-06-14 06:51:00,62.8,57.6,29.96,SE,134,6.0,15.0,83,0.00,,FEW110,0.00,VWS V14.01,2013-06-14 11:51:00,
2013-06-14 06:56:00,62.9,57.3,29.98,South,177,7.0,15.0,82,0.00,,FEW110,0.00,VWS V14.01,2013-06-14 11:56:00,
2013-06-14 07:00:00,62.8,57.2,29.98,ESE,110,7.0,10.0,82,0.00,,,0.00,VWS V14.01,2013-06-14 12:00:00,
2013-06-14 07:01:00,63.1,57.5,29.98,ESE,121,8.0,9.0,82,0.00,,SCT100,0.00,VWS V14.01,2013-06-14 12:01:00,
2013-06-14 07:06:00,63.1,57.9,29.98,SE,133,5.0,9.0,83,0.00,,SCT100,0.00,VWS V14.01,2013-06-14 12:06:00,
2013-06-14 07:11:00,63.2,58.0,29.98,SE,132,5.0,9.0,83,0.00,,SCT100,0.00,VWS V14.01,2013-06-14 12:11:00,
2013-06-14 07:16:00,63.2,58.0,29.98,SE,131,7.0,10.0,83,0.00,,SCT100,0.00,VWS V14.01,2013-06-14 12:16:00,
2013-06-14 07:21:00,63.3,58.4,29.98,SE,126,7.0,11.0,84,0.00,,SCT100,0.00,VWS V14.01,2013-06-14 12:21:00,
2013-06-14 07:26:00,63.2,58.0,29.98,ESE,123,5.0,11.0,83,0.00,,SCT100,0.00,VWS V14.01,2013-06-14 12:26:00,
2013-06-14 07:30:00,63.2,57.3,29.95,ESE,110,11.0,16.0,81,0.00,,,0.00,VWS V14.01,2013-06-14 12:30:00,
2013-06-14 07:31:00,63.3,57.7,29.98,ESE,118,7.0,8.0,82,0.00,,SCT100,0.00,VWS V14.01,2013-06-14 12:31:00,
2013-06-14 07:36:00,63.5,57.9,29.98,ESE,120,8.0,12.0,82,0.00,,SCT100,0.00,VWS V14.01,2013-06-14 12:36:00,
2013-06-14 07:41:00,63.7,58.1,29.98,ESE,116,6.0,12.0,82,0.00,,SCT100,0.00,VWS V14.01,2013-06-14 12:41:00,
2013-06-14 07:46:00,63.7,58.5,29.98,SE,125,9.0,12.0,83,0.00,,SCT100,0.00,VWS V14.01,2013-06-14 12:46:00,
2013-06-14 07:51:00,63.7,58.5,29.98,SSE,149,7.0,12.0,83,0.00,,SCT100,0.00,VWS V14.01,2013-06-14 12:51:00,
2013-06-14 07:56:00,63.9,58.3,29.98,SE,136,9.0,13.0,82,0.00,,SCT100,0.00,VWS V14.01,2013-06-14 12:56:00,
2013-06-14 08:00:00,63.0,57.8,29.98,SE,131,5.0,15.0,83,0.00,,,0.00,VWS V14.01,2013-06-14 13:00:00,
2013-06-14 08:01:00,64.0,58.4,29.99,East,101,8.0,8.0,82,0.00,,SCT120,0.00,VWS V14.01,2013-06-14 13:01:00,
2013-06-14 08:06:00,64.2,58.6,29.98,SE,130,9.0,11.0,82,0.00,,SCT120,0.00,VWS V14.01,2013-06-14 13:06:00,
2013-06-14 08:11:00,64.4,58.8,29.97,SE,136,9.0,13.0,82,0.00,,SCT120,0.00,VWS V14.01,2013-06-14 13:11:00,
2013-06-14 08:16:00,64.8,58.8,29.97,SSE,159,9.0,15.0,81,0.00,,SCT120,0.00,VWS V14.01,2013-06-14 13:16:00,
2013-06-14 08:21:00,65.2,58.9,29.97,SSE,161,7.0,15.0,80,0.00,,SCT120,0.00,VWS V14.01,2013-06-14 13:21:00,
2013-06-14 08:26:00,65.4,59.1,29.97,SE,142,8.0,15.0,80,0.00,,SCT120,0.00,VWS V14.01,2013-06-14 13:26:00,
2013-06-14 08:30:00,63.3,58.1,29.98,East,100,8.0,11.0,83,0.00,,,0.00,VWS V14.01,2013-06-14 13:30:00,
2013-06-14 08:31:00,65.6,58.9,29.97,SE,136,12.0,12.0,79,0.00,,SCT120,0.00,VWS V14.01,2013-06-14 13:31:00,
2013-06-14 08:36:00,65.9,59.2,29.98,SE,142,8.0,14.0,79,0.00,,SCT120,0.00,VWS V14.01,2013-06-14 13:36:00,
2013-06-14 08:41:00,66.2,59.5,29.99,SE,141,8.0,14.0,79,0.00,,SCT120,0.00,VWS V14.01,2013-06-14 13:41:00,
2013-06-14 08:46:00,66.7,60.0,29.99,SE,135,10.0,14.0,79,0.00,,SCT120,0.00,VWS V14.01,2013-06-14 13:46:00,
2013-06-14 08:51:00,67.3,60.6,29.99,ESE,120,8.0,14.0,79,0.00,,SCT120,0.00,VWS V14.01,2013-06-14 13:51:00,
2013-06-14 08:56:00,68.0,60.2,29.99,SSE,152,11.0,16.0,76,0.00,,SCT120,0.00,VWS V14.01,2013-06-14 13:56:00,
2013-06-14 09:00:00,64.0,58.4,29.99,SE,127,8.0,13.0,82,0.00,,,0.00,VWS V14.01,2013-06-14 14:00:00,
2013-06-14 09:01:00,68.2,60.0,29.99,SSE,148,11.0,12.0,75,0.00,,CLR,0.00,VWS V14.01,2013-06-14 14:01:00,
2013-06-14 09:06:00,68.4,60.5,29.99,SE,126,11.0,19.0,76,0.00,,CLR,0.00,VWS V14.01,2013-06-14 14:06:00,
2013-06-14 09:11:00,68.8,60.6,29.99,ESE,122,11.0,19.0,75,0.00,,CLR,0.00,VWS V14.01,2013-06-14 14:11:00,
2013-06-14 09:16:00,68.8,60.6,29.98,SE,124,16.0,19.0,75,0.00,,CLR,0.00,VWS V14.01,2013-06-14 14:16:00,
2013-06-14 09:21:00,68.6,60.4,29.99,ESE,116,14.0,20.0,75,0.00,,CLR,0.00,VWS V14.01,2013-06-14 14:21:00,
2013-06-14 09:26:00,68.7,60.1,29.99,ESE,110,18.0,20.0,74,0.00,,CLR,0.00,VWS V14.01,2013-06-14 14:26:00,
2013-06-14 09:30:00,65.7,59.0,29.97,SSE,160,7.0,15.0,79,0.00,,,0.00,VWS V14.01,2013-06-14 14:30:00,
2013-06-14 09:31:00,68.8,60.9,29.99,ESE,103,15.0,15.0,76,0.00,,CLR,0.00,VWS V14.01,2013-06-14 14:31:00,
2013-06-14 09:36:00,69.0,60.4,29.98,ESE,122,12.0,18.0,74,0.00,,CLR,0.00,VWS V14.01,2013-06-14 14:36:00,
2013-06-14 09:41:00,69.2,60.2,29.98,ESE,121,12.0,21.0,73,0.00,,CLR,0.00,VWS V14.01,2013-06-14 14:41:00,
2013-06-14 09:46:00,69.4,61.1,29.98,ESE,106,13.0,21.0,75,0.00,,CLR,0.00,VWS V14.01,2013-06-14 14:46:00,
2013-06-14 09:50:00,69.1,60.5,29.99,ESE,117,13.0,21.0,74,0.00,,CLR,0.00,VWS V14.01,2013-06-14 14:50:00,
2013-06-14 09:55:00,68.9,60.3,29.99,SSE,148,14.0,21.0,74,0.00,,CLR,0.00,VWS V14.01,2013-06-14 14:55:00,
2013-06-14 10:00:00,68.7,60.5,29.98,ESE,118,18.0,21.0,75,0.00,,CLR,0.00,VWS V14.01,2013-06-14 15:00:00,
2013-06-14 10:05:00,68.4,60.2,29.98,SE,126,15.0,22.0,75,0.00,,CLR,0.00,VWS V14.01,2013-06-14 15:05:00,
2013-06-14 10:10:00,68.5,60.6,29.98,ESE,123,10.0,22.0,76,0.00,,CLR,0.00,VWS V14.01,2013-06-14 15:10:00,
2013-06-14 10:15:00,68.6,61.1,29.98,SE,137,9.0,22.0,77,0.00,,CLR,0.00,VWS V14.01,2013-06-14 15:15:00,
2013-06-14 10:20:00,68.9,61.4,29.98,SE,134,14.0,22.0,77,0.00,,CLR,0.00,VWS V14.01,2013-06-14 15:20:00,
2013-06-14 10:25:00,69.2,61.0,29.98,ESE,105,20.0,22.0,75,0.00,,CLR,0.00,VWS V14.01,2013-06-14 15:25:00,
2013-06-14 10:30:00,69.1,60.5,29.99,SE,133,18.0,22.0,74,0.00,,CLR,0.00,VWS V14.01,2013-06-14 15:30:00,
2013-06-14 10:35:00,69.3,61.0,29.98,SE,126,16.0,20.0,75,0.00,,CLR,0.00,VWS V14.01,2013-06-14 15:35:00,
2013-06-14 10:40:00,69.7,60.7,29.98,SE,143,16.0,20.0,73,0.00,,CLR,0.00,VWS V14.01,2013-06-14 15:40:00,
2013-06-14 10:45:00,69.9,61.2,29.97,ESE,117,18.0,22.0,74,0.00,,CLR,0.00,VWS V14.01,2013-06-14 15:45:00,
2013-06-14 10:50:00,70.5,61.4,29.97,SE,131,15.0,24.0,73,0.00,,CLR,0.00,VWS V14.01,2013-06-14 15:50:00,
2013-06-14 10:55:00,70.7,61.2,29.97,ESE,115,23.0,24.0,72,0.00,,CLR,0.00,VWS V14.01,2013-06-14 15:55:00,
2013-06-14 11:00:00,71.1,62.4,29.96,ESE,119,22.0,24.0,74,0.00,,SCT090,0.00,VWS V14.01,2013-06-14 16:00:00,
2013-06-14 11:05:00,71.2,62.1,29.96,SSE,150,15.0,26.0,73,0.00,,SCT090,0.00,VWS V14.01,2013-06-14 16:05:00,
2013-06-14 11:10:00,71.5,62.0,29.96,ESE,115,21.0,26.0,72,0.00,,SCT090,0.00,VWS V14.01,2013-06-14 16:10:00,
2013-06-14 11:15:00,71.5,61.6,29.96,SE,127,17.0,26.0,71,0.00,,SCT090,0.00,VWS V14.01,2013-06-14 16:15:00,
2013-06-14 11:20:00,70.7,61.2,29.95,SE,124,16.0,26.0,72,0.00,,SCT090,0.00,VWS V14.01,2013-06-14 16:20:00,
2013-06-14 11:25:00,70.5,62.2,29.96,ESE,122,13.0,26.0,75,0.00,,SCT090,0.00,VWS V14.01,2013-06-14 16:25:00,
2013-06-14 11:30:00,70.5,61.0,29.97,ESE,108,15.0,26.0,72,0.00,,SCT090,0.00,VWS V14.01,2013-06-14 16:30:00,
2013-06-14 11:35:00,70.7,61.6,29.96,SE,134,15.0,23.0,73,0.00,,SCT090,0.00,VWS V14.01,2013-06-14 16:35:00,
2013-06-14 11:40:00,70.7,61.2,29.96,ESE,103,17.0,23.0,72,0.00,,SCT090,0.00,VWS V14.01,2013-06-14 16:40:00,
2013-06-14 11:45:00,70.6,60.8,29.95,SE,137,14.0,24.0,71,0.00,,SCT090,0.00,VWS V14.01,2013-06-14 16:45:00,
2013-06-14 11:50:00,71.0,61.1,29.95,SSE,149,20.0,24.0,71,0.00,,SCT090,0.00,VWS V14.01,2013-06-14 16:50:00,
2013-06-14 11:55:00,71.4,61.5,29.95,ESE,118,20.0,25.0,71,0.00,,SCT090,0.00,VWS V14.01,2013-06-14 16:55:00,
2013-06-14 12:00:00,72.2,61.9,29.95,SE,142,19.0,25.0,70,0.00,,SCT090,0.00,VWS V14.01,2013-06-14 17:00:00,
2013-06-14 12:05:00,72.1,61.0,29.95,SE,128,17.0,25.0,68,0.00,,OVC085,0.00,VWS V14.01,2013-06-14 17:05:00,
2013-06-14 12:10:00,72.2,61.5,29.95,SE,133,17.0,25.0,69,0.00,,OVC085,0.00,VWS V14.01,2013-06-14 17:10:00,
2013-06-14 12:15:00,71.5,60.0,29.95,ESE,109,15.0,25.0,67,0.00,,OVC085,0.00,VWS V14.01,2013-06-14 17:15:00,
2013-06-14 12:20:00,71.2,60.1,29.95,SSE,163,16.0,25.0,68,0.00,,OVC085,0.00,VWS V14.01,2013-06-14 17:20:00,
2013-06-14 12:25:00,71.0,60.3,29.95,ESE,120,15.0,25.0,69,0.00,,OVC085,0.00,VWS V14.01,2013-06-14 17:25:00,
2013-06-14 12:30:00,71.1,60.4,29.95,ESE,112,18.0,25.0,69,0.00,,OVC085,0.00,VWS V14.01,2013-06-14 17:30:00,
2013-06-14 12:35:00,71.3,61.0,29.95,SE,134,15.0,22.0,70,0.00,,OVC085,0.00,VWS V14.01,2013-06-14 17:35:00,
2013-06-14 12:40:00,71.3,61.0,29.95,SE,135,15.0,25.0,70,0.00,,OVC085,0.00,VWS V14.01,2013-06-14 17:40:00,
2013-06-14 12:45:00,71.2,60.9,29.95,ESE,116,15.0,25.0,70,0.00,,OVC085,0.00,VWS V14.01,2013-06-14 17:45:00,
2013-06-14 12:50:00,71.3,60.6,29.94,SE,125,21.0,25.0,69,0.00,,OVC085,0.00,VWS V14.01,2013-06-14 17:50:00,
2013-06-14 12:55:00,71.4,60.3,29.94,ESE,115,14.0,25.0,68,0.00,,OVC085,0.00,VWS V14.01,2013-06-14 17:55:00,
2013-06-14 13:00:00,71.6,61.3,29.94,East,101,13.0,25.0,70,0.00,,OVC085,0.00,VWS V14.01,2013-06-14 18:00:00,
2013-06-14 13:05:00,71.4,60.3,29.94,ESE,120,15.0,22.0,68,0.00,,FEW075,0.00,VWS V14.01,2013-06-14 18:05:00,
2013-06-14 13:10:00,71.4,60.3,29.94,ESE,117,18.0,22.0,68,0.00,,FEW075,0.00,VWS V14.01,2013-06-14 18:10:00,
2013-06-14 13:15:00,71.3,60.6,29.94,East,97,14.0,23.0,69,0.00,,FEW075,0.00,VWS V14.01,2013-06-14 18:15:00,
2013-06-14 13:20:00,71.2,60.5,29.94,ESE,109,16.0,23.0,69,0.00,,FEW075,0.00,VWS V14.01,2013-06-14 18:20:00,
2013-06-14 13:25:00,71.4,60.3,29.94,ESE,118,18.0,23.0,68,0.00,,FEW075,0.00,VWS V14.01,2013-06-14 18:25:00,
2013-06-14 13:30:00,71.4,60.3,29.94,SE,133,12.0,23.0,68,0.00,,FEW075,0.00,VWS V14.01,2013-06-14 18:30:00,
2013-06-14 13:35:00,71.4,60.3,29.94,ESE,117,17.0,23.0,68,0.00,,FEW075,0.00,VWS V14.01,2013-06-14 18:35:00,
2013-06-14 13:40:00,71.7,60.6,29.94,ESE,118,16.0,23.0,68,0.00,,FEW075,0.00,VWS V14.01,2013-06-14 18:40:00,
2013-06-14 13:45:00,72.3,61.2,29.94,SE,137,18.0,23.0,68,0.00,,FEW075,0.00,VWS V14.01,2013-06-14 18:45:00,
2013-06-14 13:50:00,72.3,60.3,29.94,ESE,116,18.0,23.0,66,0.00,,FEW075,0.00,VWS V14.01,2013-06-14 18:50:00,
2013-06-14 13:55:00,72.4,60.4,29.94,SE,134,19.0,23.0,66,0.00,,FEW075,0.00,VWS V14.01,2013-06-14 18:55:00,
2013-06-14 14:00:00,72.6,60.2,29.94,SE,134,14.0,23.0,65,0.00,,CLR,0.00,VWS V14.01,2013-06-14 19:00:00,
2013-06-14 14:05:00,72.7,60.3,29.94,ESE,118,15.0,20.0,65,0.00,,CLR,0.00,VWS V14.01,2013-06-14 19:05:00,
2013-06-14 14:10:00,72.6,60.6,29.94,SE,137,16.0,21.0,66,0.00,,CLR,0.00,VWS V14.01,2013-06-14 19:10:00,
2013-06-14 14:15:00,72.7,59.8,29.94,SE,132,16.0,23.0,64,0.00,,CLR,0.00,VWS V14.01,2013-06-14 19:15:00,
2013-06-14 14:20:00,72.6,60.2,29.93,SE,133,13.0,23.0,65,0.00,,CLR,0.00,VWS V14.01,2013-06-14 19:20:00,
2013-06-14 14:25:00,72.7,60.3,29.93,SE,139,14.0,24.0,65,0.00,,CLR,0.00,VWS V14.01,2013-06-14 19:25:00,
2013-06-14 14:30:00,73.1,61.1,29.93,SSE,156,18.0,24.0,66,0.00,,CLR,0.00,VWS V14.01,2013-06-14 19:30:00,
2013-06-14 14:35:00,73.1,60.7,29.93,SE,134,15.0,22.0,65,0.00,,CLR,0.00,VWS V14.01,2013-06-14 19:35:00,
2013-06-14 14:40:00,73.0,60.1,29.94,SE,135,18.0,22.0,64,0.00,,CLR,0.00,VWS V14.01,2013-06-14 19:40:00,
2013-06-14 14:45:00,72.8,60.4,29.93,SE,134,13.0,22.0,65,0.00,,CLR,0.00,VWS V14.01,2013-06-14 19:45:00,
2013-06-14 14:50:00,72.8,60.8,29.92,SSE,162,16.0,22.0,66,0.00,,CLR,0.00,VWS V14.01,2013-06-14 19:50:00,
2013-06-14 14:55:00,73.3,61.7,29.93,SE,143,14.0,22.0,67,0.00,,CLR,0.00,VWS V14.01,2013-06-14 19:55:00,
2013-06-14 15:00:00,73.6,61.1,29.93,SE,135,8.0,22.0,65,0.00,,CLR,0.00,VWS V14.01,2013-06-14 20:00:00,
2013-06-14 15:05:00,74.0,61.1,29.93,SE,138,13.0,21.0,64,0.00,,CLR,0.00,VWS V14.01,2013-06-14 20:05:00,
2013-06-14 15:10:00,74.0,60.6,29.93,South,172,10.0,21.0,63,0.00,,CLR,0.00,VWS V14.01,2013-06-14 20:10:00,
2013-06-14 15:15:00,73.7,60.8,29.93,SSE,150,17.0,21.0,64,0.00,,CLR,0.00,VWS V14.01,2013-06-14 20:15:00,
2013-06-14 15:20:00,73.6,61.1,29.92,ESE,117,17.0,21.0,65,0.00,,CLR,0.00,VWS V14.01,2013-06-14 20:20:00,
2013-06-14 15:25:00,73.2,61.2,29.92,SE,141,18.0,21.0,66,0.00,,CLR,0.00,VWS V14.01,2013-06-14 20:25:00,
2013-06-14 15:30:00,73.0,61.0,29.91,SSE,153,12.0,21.0,66,0.00,,CLR,0.00,VWS V14.01,2013-06-14 20:30:00,
2013-06-14 15:35:00,72.8,61.2,29.92,SSE,150,13.0,20.0,67,0.00,,CLR,0.00,VWS V14.01,2013-06-14 20:35:00,
2013-06-14 15:40:00,72.6,61.0,29.92,SSE,158,12.0,20.0,67,0.00,,CLR,0.00,VWS V14.01,2013-06-14 20:40:00,
2013-06-14 15:45:00,72.7,61.5,29.91,SSW,195,11.0,20.0,68,0.00,,CLR,0.00,VWS V14.01,2013-06-14 20:45:00,
2013-06-14 15:50:00,72.5,60.9,29.91,SE,139,14.0,20.0,67,0.00,,CLR,0.00,VWS V14.01,2013-06-14 20:50:00,
2013-06-14 15:55:00,72.3,61.2,29.91,SE,135,11.0,20.0,68,0.00,,CLR,0.00,VWS V14.01,2013-06-14 20:55:00,
2013-06-14 16:00:00,72.2,61.1,29.91,SE,125,17.0,20.0,68,0.00,,CLR,0.00,VWS V14.01,2013-06-14 21:00:00,
2013-06-14 16:05:00,72.1,61.4,29.91,SE,138,10.0,15.0,69,0.00,,CLR,0.00,VWS V14.01,2013-06-14 21:05:00,
2013-06-14 16:10:00,72.1,61.4,29.91,ESE,113,12.0,16.0,69,0.00,,CLR,0.00,VWS V14.01,2013-06-14 21:10:00,
2013-06-14 16:15:00,72.1,61.0,29.91,SE,129,11.0,17.0,68,0.00,,CLR,0.00,VWS V14.01,2013-06-14 21:15:00,
2013-06-14 16:20:00,72.1,61.0,29.90,ESE,118,11.0,20.0,68,0.00,,CLR,0.00,VWS V14.01,2013-06-14 21:20:00,
2013-06-14 16:25:00,72.0,60.9,29.89,SSE,158,18.0,20.0,68,0.00,,CLR,0.00,VWS V14.01,2013-06-14 21:25:00,
2013-06-14 16:30:00,71.9,61.2,29.88,SSE,162,17.0,20.0,69,0.00,,CLR,0.00,VWS V14.01,2013-06-14 21:30:00,
2013-06-14 16:35:00,71.8,61.1,29.87,SE,125,15.0,21.0,69,0.00,,CLR,0.00,VWS V14.01,2013-06-14 21:35:00,
2013-06-14 16:40:00,71.7,61.4,29.86,ESE,117,15.0,21.0,70,0.00,,CLR,0.00,VWS V14.01,2013-06-14 21:40:00,
2013-06-14 16:45:00,71.6,61.3,29.87,SE,132,12.0,21.0,70,0.00,,CLR,0.00,VWS V14.01,2013-06-14 21:45:00,
2013-06-14 16:50:00,71.5,60.8,29.87,SE,132,11.0,21.0,69,0.00,,CLR,0.00,VWS V14.01,2013-06-14 21:50:00,
2013-06-14 16:55:00,71.4,61.1,29.87,SE,134,12.0,21.0,70,0.00,,CLR,0.00,VWS V14.01,2013-06-14 21:55:00,
2013-06-14 17:00:00,71.2,60.9,29.87,SE,126,13.0,21.0,70,0.00,,CLR,0.00,VWS V14.01,2013-06-14 22:00:00,
2013-06-14 17:05:00,71.1,61.2,29.86,ESE,114,14.0,17.0,71,0.00,,CLR,0.00,VWS V14.01,2013-06-14 22:05:00,
2013-06-14 17:10:00,71.0,60.7,29.87,SE,131,13.0,20.0,70,0.00,,CLR,0.00,VWS V14.01,2013-06-14 22:10:00,
2013-06-14 17:15:00,70.9,61.0,29.87,SE,133,15.0,20.0,71,0.00,,CLR,0.00,VWS V14.01,2013-06-14 22:15:00,
2013-06-14 17:20:00,70.7,60.8,29.87,SSE,153,10.0,20.0,71,0.00,,CLR,0.00,VWS V14.01,2013-06-14 22:20:00,
2013-06-14 17:25:00,70.6,61.1,29.87,SE,134,10.0,20.0,72,0.00,,CLR,0.00,VWS V14.01,2013-06-14 22:25:00,
2013-06-14 17:30:00,70.6,61.1,29.88,SSE,159,10.0,20.0,72,0.00,,CLR,0.00,VWS V14.01,2013-06-14 22:30:00,
2013-06-14 17:35:00,70.6,61.1,29.88,SE,131,13.0,17.0,72,0.00,,CLR,0.00,VWS V14.01,2013-06-14 22:35:00,
2013-06-14 17:40:00,70.6,61.1,29.88,SSE,152,12.0,19.0,72,0.00,,CLR,0.00,VWS V14.01,2013-06-14 22:40:00,
2013-06-14 17:45:00,70.5,61.0,29.88,SE,141,13.0,19.0,72,0.00,,CLR,0.00,VWS V14.01,2013-06-14 22:45:00,
2013-06-14 17:50:00,70.4,61.3,29.88,SSE,148,15.0,19.0,73,0.00,,CLR,0.00,VWS V14.01,2013-06-14 22:50:00,
2013-06-14 17:55:00,70.3,61.2,29.86,SE,129,13.0,19.0,73,0.00,,CLR,0.00,VWS V14.01,2013-06-14 22:55:00,
2013-06-14 18:00:00,70.2,61.5,29.86,SSE,149,9.0,19.0,74,0.00,,CLR,0.00,VWS V14.01,2013-06-14 23:00:00,
2013-06-14 18:05:00,70.1,61.4,29.85,ESE,123,11.0,17.0,74,0.00,,FEW075,0.00,VWS V14.01,2013-06-14 23:05:00,
2013-06-14 18:10:00,70.0,61.3,29.85,ESE,113,12.0,17.0,74,0.00,,FEW075,0.00,VWS V14.01,2013-06-14 23:10:00,
2013-06-14 18:15:00,70.0,61.7,29.85,ESE,110,14.0,17.0,75,0.00,,FEW075,0.00,VWS V14.01,2013-06-14 23:15:00,
2013-06-14 18:20:00,70.0,61.7,29.84,SE,136,17.0,18.0,75,0.00,,FEW075,0.00,VWS V14.01,2013-06-14 23:20:00,
2013-06-14 18:25:00,70.1,61.8,29.84,ESE,108,13.0,18.0,75,0.00,,FEW075,0.00,VWS V14.01,2013-06-14 23:25:00,
2013-06-14 18:30:00,70.1,61.8,29.84,ESE,110,12.0,18.0,75,0.00,,FEW075,0.00,VWS V14.01,2013-06-14 23:30:00,
2013-06-14 18:35:00,70.2,61.9,29.84,SE,133,13.0,17.0,75,0.00,,FEW075,0.00,VWS V14.01,2013-06-14 23:35:00,
2013-06-14 18:40:00,70.2,61.9,29.85,SSE,151,10.0,17.0,75,0.00,,FEW075,0.00,VWS V14.01,2013-06-14 23:40:00,
2013-06-14 18:45:00,70.2,61.9,29.85,SE,136,8.0,17.0,75,0.00,,FEW075,0.00,VWS V14.01,2013-06-14 23:45:00,
2013-06-14 18:50:00,70.2,61.9,29.85,SE,129,11.0,19.0,75,0.00,,FEW075,0.00,VWS V14.01,2013-06-14 23:50:00,
2013-06-14 18:55:00,70.2,61.9,29.84,SSE,162,14.0,19.0,75,0.00,,FEW075,0.00,VWS V14.01,2013-06-14 23:55:00,
2013-06-14 19:00:00,70.2,61.5,29.85,SE,131,12.0,19.0,74,0.00,,CLR,0.00,VWS V14.01,2013-06-15 00:00:00,
2013-06-14 19:05:00,70.1,61.8,29.84,SE,133,12.0,19.0,75,0.00,,CLR,0.00,VWS V14.01,2013-06-15 00:05:00,
2013-06-14 19:10:00,70.1,61.8,29.84,SE,143,13.0,19.0,75,0.00,,CLR,0.00,VWS V14.01,2013-06-15 00:10:00,
2013-06-14 19:15:00,70.0,62.1,29.83,ESE,118,14.0,19.0,76,0.00,,CLR,0.00,VWS V14.01,2013-06-15 00:15:00,
2013-06-14 19:20:00,70.0,62.5,29.83,ESE,114,16.0,19.0,77,0.00,,CLR,0.00,VWS V14.01,2013-06-15 00:20:00,
2013-06-14 19:25:00,69.9,62.4,29.84,SE,125,14.0,19.0,77,0.00,,CLR,0.00,VWS V14.01,2013-06-15 00:25:00,
2013-06-14 19:30:00,69.9,62.0,29.83,SE,145,13.0,19.0,76,0.00,,CLR,0.00,VWS V14.01,2013-06-15 00:30:00,
2013-06-14 19:35:00,70.0,62.1,29.83,SSE,150,15.0,16.0,76,0.00,,CLR,0.00,VWS V14.01,2013-06-15 00:35:00,
2013-06-14 19:40:00,69.9,62.0,29.84,SSE,155,9.0,16.0,76,0.00,,CLR,0.00,VWS V14.01,2013-06-15 00:40:00,
2013-06-14 19:45:00,69.9,62.4,29.84,SE,131,9.0,16.0,77,0.00,,CLR,0.00,VWS V14.01,2013-06-15 00:45:00,
2013-06-14 19:50:00,69.9,62.4,29.83,ESE,122,10.0,17.0,77,0.00,,CLR,0.00,VWS V14.01,2013-06-15 00:50:00,
2013-06-14 19:55:00,69.8,62.6,29.83,ESE,120,11.0,17.0,78,0.00,,CLR,0.00,VWS V14.01,2013-06-15 00:55:00,
2013-06-14 20:00:00,69.7,62.5,29.83,SE,133,8.0,17.0,78,0.00,,CLR,0.00,VWS V14.01,2013-06-15 01:00:00,
2013-06-14 20:05:00,69.5,62.3,29.83,SE,127,12.0,16.0,78,0.00,,CLR,0.00,VWS V14.01,2013-06-15 01:05:00,
2013-06-14 20:10:00,69.4,62.2,29.83,ESE,112,12.0,16.0,78,0.00,,CLR,0.00,VWS V14.01,2013-06-15 01:10:00,
2013-06-14 20:15:00,69.3,62.5,29.84,SE,128,8.0,16.0,79,0.00,,CLR,0.00,VWS V14.01,2013-06-15 01:15:00,
2013-06-14 20:20:00,69.2,62.4,29.84,ESE,114,7.0,16.0,79,0.00,,CLR,0.00,VWS V14.01,2013-06-15 01:20:00,
2013-06-14 20:25:00,69.0,62.6,29.84,ESE,104,8.0,16.0,80,0.00,,CLR,0.00,VWS V14.01,2013-06-15 01:25:00,
2013-06-14 20:30:00,68.9,62.5,29.84,ESE,116,8.0,16.0,80,0.00,,CLR,0.00,VWS V14.01,2013-06-15 01:30:00,
2013-06-14 20:35:00,68.8,62.4,29.85,ESE,108,9.0,12.0,80,0.00,,CLR,0.00,VWS V14.01,2013-06-15 01:35:00,
2013-06-14 20:40:00,68.7,62.3,29.84,ESE,115,9.0,13.0,80,0.00,,CLR,0.00,VWS V14.01,2013-06-15 01:40:00,
2013-06-14 20:45:00,68.5,62.5,29.84,ESE,111,10.0,13.0,81,0.00,,CLR,0.00,VWS V14.01,2013-06-15 01:45:00,
2013-06-14 20:50:00,68.4,62.3,29.84,ESE,120,7.0,13.0,81,0.00,,CLR,0.00,VWS V14.01,2013-06-15 01:50:00,
2013-06-14 20:55:00,68.2,62.2,29.85,ESE,110,10.0,13.0,81,0.00,,CLR,0.00,VWS V14.01,2013-06-15 01:55:00,
2013-06-14 21:00:00,68.1,62.4,29.84,East,98,7.0,13.0,82,0.00,,BKN110,0.00,VWS V14.01,2013-06-15 02:00:00,
2013-06-14 21:05:00,68.0,62.3,29.84,East,94,6.0,10.0,82,0.00,,BKN110,0.00,VWS V14.01,2013-06-15 02:05:00,
2013-06-14 21:10:00,67.9,62.2,29.84,ESE,102,8.0,10.0,82,0.00,,BKN110,0.00,VWS V14.01,2013-06-15 02:10:00,
2013-06-14 21:15:00,67.8,62.1,29.83,East,96,6.0,10.0,82,0.00,,BKN110,0.00,VWS V14.01,2013-06-15 02:15:00,
2013-06-14 21:20:00,67.8,62.1,29.83,ESE,104,5.0,11.0,82,0.00,,BKN110,0.00,VWS V14.01,2013-06-15 02:20:00,
2013-06-14 21:25:00,67.7,62.0,29.82,ESE,108,8.0,11.0,82,0.00,,BKN110,0.00,VWS V14.01,2013-06-15 02:25:00,
2013-06-14 21:30:00,67.6,61.9,29.82,ESE,102,7.0,11.0,82,0.00,,BKN110,0.00,VWS V14.01,2013-06-15 02:30:00,
2013-06-14 21:35:00,67.4,62.1,29.82,East,93,6.0,9.0,83,0.00,,BKN110,0.00,VWS V14.01,2013-06-15 02:35:00,
2013-06-14 21:40:00,67.4,62.1,29.82,ESE,103,8.0,12.0,83,0.00,,BKN110,0.00,VWS V14.01,2013-06-15 02:40:00,
2013-06-14 21:45:00,67.3,62.0,29.82,SE,134,8.0,12.0,83,0.00,,BKN110,0.00,VWS V14.01,2013-06-15 02:45:00,
2013-06-14 21:50:00,67.3,62.0,29.83,ESE,121,11.0,14.0,83,0.00,,BKN110,0.00,VWS V14.01,2013-06-15 02:50:00,
2013-06-14 21:55:00,67.2,62.2,29.83,ESE,108,7.0,14.0,84,0.00,,BKN110,0.00,VWS V14.01,2013-06-15 02:55:00,
2013-06-14 22:00:00,67.1,61.8,29.83,ESE,121,9.0,14.0,83,0.00,,BKN110,0.00,VWS V14.01,2013-06-15 03:00:00,
2013-06-14 22:05:00,67.1,62.1,29.82,SE,131,8.0,12.0,84,0.00,,OVC110,0.00,VWS V14.01,2013-06-15 03:05:00,
2013-06-14 22:10:00,67.1,61.8,29.82,SE,127,8.0,12.0,83,0.00,,OVC110,0.00,VWS V14.01,2013-06-15 03:10:00,
2013-06-14 22:15:00,67.1,61.8,29.82,East,100,8.0,14.0,83,0.00,,OVC110,0.00,VWS V14.01,2013-06-15 03:15:00,
2013-06-14 22:20:00,67.1,61.8,29.83,SE,131,8.0,14.0,83,0.00,,OVC110,0.00,VWS V14.01,2013-06-15 03:20:00,
2013-06-14 22:25:00,66.9,61.9,29.85,SE,141,5.0,14.0,84,0.00,,OVC110,0.00,VWS V14.01,2013-06-15 03:25:00,
2013-06-14 22:30:00,66.9,61.9,29.86,SSE,156,6.0,14.0,84,0.00,,OVC110,0.00,VWS V14.01,2013-06-15 03:30:00,
2013-06-14 22:35:00,67.0,62.0,29.87,SE,141,10.0,11.0,84,0.00,,OVC110,0.00,VWS V14.01,2013-06-15 03:35:00,
2013-06-14 22:40:00,66.9,61.6,29.86,SE,143,10.0,12.0,83,0.00,,OVC110,0.00,VWS V14.01,2013-06-15 03:40:00,
2013-06-14 22:45:00,66.9,61.9,29.87,SE,141,7.0,12.0,84,0.00,,OVC110,0.00,VWS V14.01,2013-06-15 03:45:00,
2013-06-14 22:50:00,66.9,61.9,29.86,SE,128,9.0,12.0,84,0.00,,OVC110,0.00,VWS V14.01,2013-06-15 03:50:00,
2013-06-14 22:55:00,66.9,61.9,29.86,SE,142,9.0,12.0,84,0.00,,OVC110,0.00,VWS V14.01,2013-06-15 03:55:00,
2013-06-14 23:00:00,66.8,61.8,29.86,SE,134,6.0,12.0,84,0.00,,BKN120,0.00,VWS V14.01,2013-06-15 04:00:00,
2013-06-14 23:01:00,66.8,61.8,29.86,SE,143,5.0,6.0,84,0.00,,BKN120,0.00,VWS V14.01,2013-06-15 04:01:00,
2013-06-14 23:06:00,66.7,61.7,29.88,SSE,159,8.0,9.0,84,0.00,,BKN120,0.00,VWS V14.01,2013-06-15 04:06:00,
2013-06-14 23:11:00,66.8,61.8,29.89,SE,138,6.0,12.0,84,0.00,,BKN120,0.00,VWS V14.01,2013-06-15 04:11:00,
2013-06-14 23:16:00,66.9,61.6,29.90,ESE,119,6.0,12.0,83,0.00,,BKN120,0.00,VWS V14.01,2013-06-15 04:16:00,
2013-06-14 23:21:00,67.0,61.7,29.91,SSE,155,4.0,12.0,83,0.00,,OVC095,0.00,VWS V14.01,2013-06-15 04:21:00,
2013-06-14 23:26:00,67.1,61.8,29.91,SE,135,6.0,12.0,83,0.00,,OVC095,0.00,VWS V14.01,2013-06-15 04:26:00,
2013-06-14 23:30:00,66.9,61.6,29.86,SE,124,7.0,14.0,83,0.00,,,0.00,VWS V14.01,2013-06-15 04:30:00,
2013-06-14 23:31:00,67.0,62.0,29.91,SE,143,7.0,8.0,84,0.01,,OVC095,0.01,VWS V14.01,2013-06-15 04:31:00,
2013-06-14 23:36:00,66.7,62.4,29.91,SSE,153,5.0,14.0,86,0.03,,OVC095,0.03,VWS V14.01,2013-06-15 04:36:00,
2013-06-14 23:41:00,66.3,62.3,29.91,South,170,7.0,14.0,87,0.05,,OVC095,0.05,VWS V14.01,2013-06-15 04:41:00,
2013-06-14 23:46:00,66.5,62.8,29.90,South,181,7.0,17.0,88,0.11,,OVC095,0.11,VWS V14.01,2013-06-15 04:46:00,
2013-06-14 23:51:00,65.6,62.6,29.88,SE,141,5.0,17.0,90,0.14,,OVC095,0.14,VWS V14.01,2013-06-15 04:51:00,
2013-06-14 23:56:00,65.0,62.6,29.86,SSE,155,9.0,17.0,92,0.15,,OVC095,0.15,VWS V14.01,2013-06-15 04:56:00,